Tracking 31028 objects as of 17-Jul-2025
HD Live streaming from Space Station
objects crossing your sky now

MOLNIYA 1-S

Track MOLNIYA 1-S now!
MOLNIYA 1-S is classified as:


NORAD ID: 7392
Int'l Code: 1974-060A
Perigee: 35,747.6 km
Apogee: 35,826.4 km
Inclination: 2.2 °
Period: 1,435.8 minutes
Semi major axis: 42157 km
RCS: 1.5848 m2 (large)
Launch date: July 29, 1974
Source: Commonwealth of Independent States (former USSR) (CIS)
Launch site: TYURATAM MISSILE AND SPACE COMPLEX (TTMTR)
Your satellite tracking list
Your tracking list is empty




NASA's NSSDC Master Catalog

Two Line Element Set (TLE):
1 07392U 74060A   25197.92348428  .00000151  00000-0  00000-0 0  9999
2 07392   2.2277 261.9424 0009341 260.3132 148.4570  1.00295846130812
Source of the keplerian elements: AFSPC